5B4ALR-13 Weather Reports


time (UTC)temp
F
wind
direction
speed
knots
gust
knots
rain 1hr
in
rain 24hr
in
rain mn
in
humidity
%
barometer
mb
20260906123256 95 180 1.7 5.2 0.00 0.00 0.00 50 1010.0
20260906122256 94 180 0.9 1.7 0.00 0.00 0.00 47 1009.9
20260906121256 94 180 0.9 0.9 0.00 0.00 0.00 48 1010.0
20260906120256 94 157 0.9 0.9 0.00 0.00 0.00 46 1010.1
20260906115256 93 270 0.9 0.9 0.00 0.00 0.00 49 1010.1
20260906114256 92 225 2.6 2.6 0.00 0.00 0.00 56 1010.1
20260906113256 94 157 1.7 2.6 0.00 0.00 0.00 52 1010.2
20260906112256 94 180 1.7 2.6 0.00 0.00 0.00 52 1010.2
20260906111256 94 180 1.7 2.6 0.00 0.00 0.00 49 1010.3
20260906110256 94 180 0.9 0.9 0.00 0.00 0.00 48 1010.4
20260906105256 93 225 1.7 1.7 0.00 0.00 0.00 48 1010.5
20260906104256 93 45 0.9 0.9 0.00 0.00 0.00 50 1010.6
20260906103256 93 180 0.9 0.9 0.00 0.00 0.00 49 1010.6
20260906102256 93 135 0.9 0.9 0.00 0.00 0.00 51 1010.6
20260906101256 93 225 0.9 0.9 0.00 0.00 0.00 53 1010.8
20260906100256 92 225 0.9 0.9 0.00 0.00 0.00 51 1010.8
20260906095256 92 180 1.7 2.6 0.00 0.00 0.00 52 1010.9
20260906094256 93 67 0.9 0.9 0.00 0.00 0.00 54 1010.9
20260906093256 91 135 0.9 0.9 0.00 0.00 0.00 57 1011.0
20260906092256 90 180 0.0 0.0 0.00 0.00 0.00 59 1011.0
20260906091256 89 90 1.7 1.7 0.00 0.00 0.00 60 1011.0
20260906090256 89 45 1.7 1.7 0.00 0.00 0.00 59 1011.1
20260906085256 90 45 1.7 1.7 0.00 0.00 0.00 58 1011.1
20260906084256 91 90 0.0 0.0 0.00 0.00 0.00 55 1011.2
20260906083256 91 270 0.0 0.0 0.00 0.00 0.00 56 1011.1
20260906082256 89 90 1.7 1.7 0.00 0.00 0.00 58 1011.1
20260906081256 89 180 0.0 0.0 0.00 0.00 0.00 57 1011.1
20260906080256 89 90 0.9 0.9 0.00 0.00 0.00 57 1011.1
20260906075256 90 45 0.9 0.9 0.00 0.00 0.00 56 1011.2
20260906074256 90 90 0.9 0.9 0.00 0.00 0.00 54 1011.2
20260906073256 90 45 0.0 0.0 0.00 0.00 0.00 55 1011.3
20260906072256 91 135 0.0 0.9 0.00 0.00 0.00 52 1011.3
20260906071256 90 67 0.9 0.9 0.00 0.00 0.00 53 1011.3
20260906070256 92 90 0.9 0.9 0.00 0.00 0.00 51 1011.3
20260906065256 94 90 0.0 0.0 0.00 0.00 0.00 44 1011.1
20260906064256 93 180 0.0 0.0 0.00 0.00 0.00 41 1011.0
20260906063256 93 0 0.0 0.0 0.00 0.00 0.00 46 1011.0
20260906062256 91 45 0.0 0.0 0.00 0.00 0.00 51 1011.0
20260906061256 91 0 0.0 0.0 0.00 0.00 0.00 52 1011.1
20260906060256 91 315 0.0 0.9 0.00 0.00 0.00 55 1011.1
20260906055256 90 270 0.0 0.0 0.00 0.00 0.00 56 1011.0
20260906054256 89 315 0.0 0.0 0.00 0.00 0.00 58 1011.0
20260906053256 88 270 0.0 0.0 0.00 0.00 0.00 58 1010.9
20260906052256 88 270 0.0 0.0 0.00 0.00 0.00 59 1010.9
20260906051256 88 270 0.0 0.0 0.00 0.00 0.00 60 1010.9
20260906050256 87 225 0.0 0.0 0.00 0.00 0.00 61 1011.0
20260906045256 86 315 0.0 0.0 0.00 0.00 0.00 64 1011.0
20260906044256 84 135 0.0 0.0 0.00 0.00 0.00 66 1011.1
20260906043256 83 270 0.0 0.9 0.00 0.00 0.00 67 1011.1
20260906042256 81 0 0.0 0.0 0.00 0.00 0.00 69 1011.1
20260906041256 81 0 0.0 0.0 0.00 0.00 0.00 71 1011.0
20260906040256 80 315 0.0 0.0 0.00 0.00 0.00 72 1011.1
20260906035256 79 0 0.0 0.0 0.00 0.00 0.00 74 1011.1
20260906034256 78 45 0.0 0.0 0.00 0.00 0.00 74 1011.0
20260906033256 78 45 0.0 0.0 0.00 0.00 0.00 76 1010.9
20260906032256 78 0 0.0 0.0 0.00 0.00 0.00 76 1010.8
20260906031256 78 270 0.0 0.0 0.00 0.00 0.00 76 1010.8
20260906030256 78 315 0.0 0.0 0.00 0.00 0.00 76 1010.6
20260906025256 78 270 0.0 0.0 0.00 0.00 0.00 76 1010.6
20260906024256 78 45 0.0 0.0 0.00 0.00 0.00 76 1010.6
20260906023256 79 315 0.0 0.0 0.00 0.00 0.00 76 1010.4
20260906022256 79 0 0.0 0.0 0.00 0.00 0.00 76 1010.5
20260906021256 79 0 0.0 0.0 0.00 0.00 0.00 76 1010.6
20260906020256 79 292 0.0 0.0 0.00 0.00 0.00 76 1010.5
20260906015256 79 45 0.0 0.0 0.00 0.00 0.00 76 1010.5
20260906014256 79 45 0.9 0.9 0.00 0.00 0.00 77 1010.5
20260906013256 79 292 0.0 0.0 0.00 0.00 0.00 76 1010.5
20260906012256 79 45 0.0 0.0 0.00 0.00 0.00 76 1010.4
20260906011256 79 315 0.0 0.0 0.00 0.00 0.00 75 1010.4
20260906010256 79 0 0.0 0.0 0.00 0.00 0.00 75 1010.3
20260906005256 79 315 0.0 0.0 0.00 0.00 0.00 74 1010.2
20260906004256 79 0 0.0 0.0 0.00 0.00 0.00 74 1010.4
20260906003256 79 315 0.0 0.0 0.00 0.00 0.00 74 1010.4
20260906002256 79 270 0.0 0.0 0.00 0.00 0.00 73 1010.5
20260906001256 79 315 0.0 0.0 0.00 0.00 0.00 72 1010.4
20260906000256 80 0 0.0 0.0 0.00 0.00 0.00 72 1010.3
20260905235256 81 45 0.0 0.0 0.00 0.00 0.00 72 1010.3
20260905234256 81 315 0.0 0.0 0.00 0.00 0.00 72 1010.4
20260905233256 81 0 0.0 0.0 0.00 0.00 0.00 72 1010.4
20260905232256 81 135 0.0 0.0 0.00 0.00 0.00 73 1010.4
20260905231256 81 135 0.0 0.0 0.00 0.00 0.00 73 1010.5
20260905230256 81 315 0.0 0.0 0.00 0.00 0.00 73 1010.7
20260905225256 81 315 0.0 0.0 0.00 0.00 0.00 73 1010.7
20260905224256 82 180 0.0 0.0 0.00 0.00 0.00 73 1010.6
20260905223256 82 315 0.0 0.0 0.00 0.00 0.00 73 1010.5
20260905222256 82 225 0.0 0.0 0.00 0.00 0.00 73 1010.7
20260905221256 82 225 0.0 0.0 0.00 0.00 0.00 73 1010.7
20260905220256 82 270 0.0 0.0 0.00 0.00 0.00 73 1010.7
20260905215256 82 315 0.0 0.0 0.00 0.00 0.00 72 1010.7
20260905214256 82 315 0.0 0.0 0.00 0.00 0.00 72 1010.7
20260905213256 83 315 0.0 0.0 0.00 0.00 0.00 72 1010.6
20260905212256 83 180 0.0 0.0 0.00 0.00 0.00 72 1010.7
20260905211256 83 270 0.0 0.0 0.00 0.00 0.00 72 1010.9
20260905210256 83 292 0.0 0.0 0.00 0.00 0.00 72 1011.0
20260905205256 83 157 0.0 0.0 0.00 0.00 0.00 72 1010.8
20260905204256 83 180 0.9 0.9 0.00 0.00 0.00 72 1011.0
20260905203255 83 180 0.0 0.0 0.00 0.00 0.00 71 1011.2
20260905202256 83 180 0.0 0.9 0.00 0.00 0.00 71 1011.2
20260905201256 83 180 0.0 0.0 0.00 0.00 0.00 71 1011.2
20260905200256 83 247 0.0 0.0 0.00 0.00 0.00 71 1011.2
20260905195256 83 225 0.0 0.0 0.00 0.00 0.00 71 1011.1
20260905194256 83 225 0.0 0.0 0.00 0.00 0.00 71 1011.2
20260905193256 83 270 0.0 0.0 0.00 0.00 0.00 70 1011.1
20260905192255 84 270 0.0 0.0 0.00 0.00 0.00 70 1011.1
20260905191256 84 270 0.9 0.9 0.00 0.00 0.00 70 1011.0
20260905190255 84 0 0.0 0.0 0.00 0.00 0.00 70 1011.1
20260905185255 84 315 0.9 0.9 0.00 0.00 0.00 70 1011.2
20260905184255 84 0 0.0 0.0 0.00 0.00 0.00 69 1011.3
20260905183255 84 292 0.0 0.0 0.00 0.00 0.00 69 1011.3
20260905182255 84 315 0.0 0.0 0.00 0.00 0.00 69 1011.2
20260905181255 85 315 0.0 0.0 0.00 0.00 0.00 68 1011.2
20260905180255 85 315 0.0 0.0 0.00 0.00 0.00 68 1011.2
20260905175255 85 270 0.0 0.0 0.00 0.00 0.00 68 1011.2
20260905174255 85 270 0.9 0.9 0.00 0.00 0.00 68 1011.1
20260905173255 86 270 0.9 0.9 0.00 0.00 0.00 67 1011.1
20260905172255 86 0 0.0 0.0 0.00 0.00 0.00 66 1010.9
20260905171255 86 315 0.9 0.9 0.00 0.00 0.00 66 1010.7
20260905170255 86 270 0.0 0.0 0.00 0.00 0.00 69 1010.7
20260905165255 85 225 0.0 0.9 0.00 0.00 0.00 70 1010.6
20260905164255 85 135 0.0 0.0 0.00 0.00 0.00 71 1010.5
20260905163256 85 247 0.0 0.0 0.00 0.00 0.00 72 1010.5
20260905162301 85 180 1.7 1.7 0.00 0.00 0.00 72 1010.5
20260905161255 85 180 1.7 1.7 0.00 0.00 0.00 71 1010.4
20260905160255 85 225 1.7 1.7 0.00 0.00 0.00 71 1010.3
20260905155255 85 225 0.9 0.9 0.00 0.00 0.00 70 1010.3
20260905154255 86 202 0.9 0.9 0.00 0.00 0.00 69 1010.2
20260905153255 87 270 1.7 1.7 0.00 0.00 0.00 66 1010.1
20260905152255 87 180 1.7 3.5 0.00 0.00 0.00 65 1010.2
20260905151255 88 180 0.9 2.6 0.00 0.00 0.00 63 1010.2
20260905150255 88 180 1.7 3.5 0.00 0.00 0.00 62 1010.2
20260905145255 89 180 1.7 6.1 0.00 0.00 0.00 59 1010.1
20260905144255 89 180 0.9 1.7 0.00 0.00 0.00 60 1010.2
20260905143255 89 180 1.7 5.2 0.00 0.00 0.00 59 1010.2
20260905142255 89 180 0.9 2.6 0.00 0.00 0.00 58 1010.3
20260905141255 90 180 1.7 3.5 0.00 0.00 0.00 55 1010.3
20260905140255 90 180 0.9 2.6 0.00 0.00 0.00 55 1010.3
20260905135255 90 180 1.7 4.3 0.00 0.00 0.00 55 1010.2
20260905134255 90 180 1.7 5.2 0.00 0.00 0.00 54 1010.3
20260905133255 90 180 2.6 7.0 0.00 0.00 0.00 57 1010.4
20260905132255 90 225 0.9 0.9 0.00 0.00 0.00 58 1010.4
20260905131255 90 157 0.9 1.7 0.00 0.00 0.00 59 1010.5
20260905130255 91 135 0.9 0.9 0.00 0.00 0.00 58 1010.4
20260905125255 91 180 1.7 2.6 0.00 0.00 0.00 59 1010.5
20260905124255 91 180 1.7 1.7 0.00 0.00 0.00 58 1010.5